Weather History for KEVV - August, 2013

Change the Weather History Date:

Thursday, August 22, 2013

  Actual Average Record
Temperature  
Mean Temperature 81 °F 76 °F  
Max Temperature 91 °F 88 °F 101 °F (1983)
Min Temperature 70 °F 65 °F 49 °F (1950)
Degree Days  
Heating Degree Days 0 0  
Month to date heating degree days 0 0  
Since 1 June heating degree days 1 6  
Since 1 July heating degree days 0 0  
Cooling Degree Days 16 11  
Month to date cooling degree days 228 266  
Year to date cooling degree days 1046 1102  
Since 1 June cooling degree days 875 967  
Growing Degree Days 30 (Base 50)    
Moisture  
Dew Point 70 °F    
Average Humidity 72    
Maximum Humidity 97    
Minimum Humidity 47    
Precipitation  
Precipitation 0.00 in 0.10 in 1.60 in (1937)
Month to date precipitation 1.36 2.14  
Year to date precipitation 35.05 30.08  
Snow  
Snow 0.00 in 0.00 in 0.00 in (2002)
Month to date snowfall 0.0 0.0  
Since 1 June snowfall 0.0 0.0  
Since 1 July snowfall 0.0 0.0  
Snow Depth 0.00 in    
Sea Level Pressure  
Sea Level Pressure 30.08 in    
Wind  
Wind Speed 2 mph (WNW)    
Max Wind Speed 10 mph    
Max Gust Speed 20 mph    
Visibility 8 miles    
Events      
T = Trace of Precipitation, MM = Missing Value Source: NWS Daily Summary

Daily Weather History Graph

Daily Weather History Graph

Search for Another Location

Airport or City:

Trip Planner

Search our weather history database for the weather conditions in past years. The results will help you decide how hot, cold, wet, or windy it might be!

Date:

Astronomy

Aug. 22, 2013 Rise Set
Actual Time 6:11 AM CDT 7:33 PM CDT
Civil Twilight 5:43 AM CDT 8:01 PM CDT
Nautical Twilight 5:10 AM CDT 8:34 PM CDT
Astronomical Twilight 4:36 AM CDT 9:08 PM CDT
Moon 8:20 PM CDT (8/22) 7:57 AM CDT (8/22)
Length of Visible Light 14h 17m
Length of Day
13h 22m
Waning Gibbous, 96% of the Moon is Illuminated
Aug 22
Waning Gibbous
Aug 28
Last Quarter
Sep 5
New
Sep 12
First Quarter
Sep 19
Full

Hourly Weather History & Observations

Time (CDT) Temp. Heat Index Dew Point Humidity Pressure Visibility Wind Dir Wind Speed Gust Speed Precip Events Conditions
12:54 AM 72.0 °F - 70.0 °F 93% 30.10 in 6.0 mi Calm Calm - N/A   Clear
1:54 AM 71.1 °F - 69.1 °F 93% 30.09 in 6.0 mi Calm Calm - N/A   Clear
2:54 AM 71.1 °F - 69.1 °F 93% 30.09 in 5.0 mi Calm Calm - N/A   Clear
3:54 AM 71.1 °F - 69.1 °F 93% 30.09 in 5.0 mi NE 3.5 mph - N/A   Clear
4:54 AM 70.0 °F - 68.0 °F 93% 30.11 in 5.0 mi Calm Calm - N/A   Clear
5:54 AM 70.0 °F - 68.0 °F 93% 30.12 in 4.0 mi Calm Calm - N/A   Mostly Cloudy
6:54 AM 70.0 °F - 68.0 °F 93% 30.12 in 4.0 mi Calm Calm - N/A   Clear
7:54 AM 75.0 °F - 71.1 °F 87% 30.12 in 6.0 mi Calm Calm - N/A   Clear
8:54 AM 80.1 °F 83.6 °F 71.1 °F 74% 30.11 in 10.0 mi SW 4.6 mph - N/A   Clear
9:54 AM 82.9 °F 87.0 °F 70.0 °F 65% 30.11 in 10.0 mi West 5.8 mph - N/A   Clear
10:54 AM 86.0 °F 90.1 °F 69.1 °F 57% 30.12 in 10.0 mi West 8.1 mph - N/A   Clear
11:54 AM 87.1 °F 91.3 °F 69.1 °F 55% 30.11 in 10.0 mi WNW 8.1 mph - N/A   Partly Cloudy
12:54 PM 86.0 °F 89.4 °F 68.0 °F 55% 30.10 in 10.0 mi West 4.6 mph - N/A   Mostly Cloudy
1:54 PM 90.0 °F 93.6 °F 68.0 °F 48% 30.08 in 10.0 mi NW 8.1 mph - N/A   Clear
2:54 PM 90.0 °F 92.8 °F 66.9 °F 46% 30.06 in 10.0 mi Calm Calm - N/A   Scattered Clouds
3:54 PM 90.0 °F 93.6 °F 68.0 °F 48% 30.04 in 10.0 mi Calm Calm - N/A   Clear
4:54 PM 90.0 °F 95.4 °F 70.0 °F 52% 30.02 in 10.0 mi NW 3.5 mph - N/A   Scattered Clouds
5:54 PM 88.0 °F 92.9 °F 70.0 °F 55% 30.03 in 10.0 mi North 4.6 mph - N/A   Clear
6:54 PM 86.0 °F 90.7 °F 70.0 °F 59% 30.01 in 10.0 mi Calm Calm - N/A   Partly Cloudy
7:54 PM 82.9 °F 87.5 °F 71.1 °F 67% 30.02 in 10.0 mi Calm Calm - N/A   Clear
8:54 PM 80.1 °F 83.8 °F 72.0 °F 76% 30.04 in 10.0 mi Calm Calm - N/A   Clear
9:54 PM 77.0 °F - 71.1 °F 82% 30.05 in 10.0 mi Calm Calm - N/A   Clear
10:54 PM 75.0 °F - 72.0 °F 90% 30.04 in 9.0 mi Calm Calm - N/A   Clear
11:54 PM 75.0 °F - 72.0 °F 90% 30.05 in 9.0 mi Calm Calm - N/A   Clear